Sisseton, SD

9:29 PM CDT on May 22, 2018 (GMT -0500)
Sisseton

Weather History for K8D3 - July, 2011

Change the Weather History Date:

Sunday, July 10, 2011

  Actual Average Record
Temperature  
Mean Temperature 76 °F 71 °F  
Max Temperature 89 °F 83 °F 112 °F (1936)
Min Temperature 63 °F 59 °F 46 °F (1945)
Degree Days  
Heating Degree Days 0 0  
Month to date heating degree days 0 3  
Since 1 June heating degree days 55 65  
Since 1 July heating degree days 0 3  
Cooling Degree Days 11 6  
Month to date cooling degree days 98 59  
Year to date cooling degree days 201 176  
Since 1 June cooling degree days 192 153  
Growing Degree Days 26 (Base 50)    
Moisture  
Dew Point 67 °F    
Average Humidity 76    
Maximum Humidity 93    
Minimum Humidity 59    
Precipitation  
Precipitation 1.41 in 0.11 in 1.70 in (1935)
Month to date precipitation 2.74 1.13  
Year to date precipitation 14.88 11.85  
Sea Level Pressure  
Sea Level Pressure 29.71 in    
Wind  
Wind Speed 9 mph (ENE)    
Max Wind Speed 44 mph    
Max Gust Speed 54 mph    
T = Trace of Precipitation, MM = Missing Value Source: NWS Daily Summary

Daily Weather History Graph

Daily Weather History Graph

Search for Another Location

Airport or City:

Astronomy

Jul. 10, 2011 Rise Set
Actual Time 5:48 AM CDT 9:17 PM CDT
Civil Twilight 5:11 AM CDT 9:54 PM CDT
Nautical Twilight 4:22 AM CDT 10:43 PM CDT
Astronomical Twilight 3:18 AM CDT 11:46 PM CDT
Moon 5:08 PM CDT (7/10) 1:34 AM CDT (7/10)
Length of Visible Light 16h 43m
Length of Day
15h 29m
Waxing Gibbous, 76% of the Moon is Illuminated
Jul 10
Waxing Gibbous
Jul 15
Full
Jul 23
Last Quarter
Jul 30
New
Aug 6
First Quarter

Hourly Weather History & Observations

Time (CDT) Temp. Heat Index Dew Point Humidity Pressure Visibility Wind Dir Wind Speed Gust Speed Precip Events Conditions
12:56 AM 73.0 °F - 70.0 °F 90% 29.69 in - NNW 4.6 mph - N/A   Unknown
1:56 AM 72.0 °F - 69.1 °F 91% 29.69 in - North 4.6 mph - N/A   Unknown
2:56 AM 71.1 °F - 68.0 °F 90% 29.70 in - North 3.5 mph - N/A   Unknown
3:56 AM 71.1 °F - 68.0 °F 90% 29.70 in - North 6.9 mph - N/A   Unknown
4:56 AM 69.1 °F - 64.9 °F 87% 29.71 in - NNW 5.8 mph - N/A   Unknown
5:56 AM 68.0 °F - 63.0 °F 84% 29.73 in - NNW 3.5 mph - N/A   Unknown
6:56 AM 70.0 °F - 63.0 °F 78% 29.74 in - West 3.5 mph - N/A   Unknown
7:56 AM 73.9 °F - 62.1 °F 66% 29.74 in - Calm Calm - N/A   Unknown
8:56 AM 77.0 °F - 62.1 °F 60% 29.73 in - SSE 6.9 mph - N/A   Unknown
10:56 AM 81.0 °F 83.3 °F 66.9 °F 62% 29.73 in - SE 8.1 mph - N/A   Unknown
11:56 AM 82.9 °F 88.0 °F 72.0 °F 69% 29.73 in - SSE 8.1 mph - N/A   Unknown
12:56 PM 84.9 °F 91.4 °F 73.0 °F 67% 29.70 in - SSE 11.5 mph 17.3 mph N/A   Unknown
1:56 PM 86.0 °F 93.8 °F 73.9 °F 67% 29.68 in - SE 13.8 mph - N/A   Unknown
2:56 PM 88.0 °F 95.6 °F 73.0 °F 61% 29.65 in - South 13.8 mph 20.7 mph N/A   Unknown
3:56 PM 88.0 °F 93.8 °F 71.1 °F 57% 29.63 in - SSE 16.1 mph 24.2 mph N/A   Unknown
4:56 PM 86.0 °F 91.5 °F 71.1 °F 61% 29.62 in - SSE 17.3 mph 24.2 mph N/A   Unknown
5:56 PM 84.0 °F 89.0 °F 71.1 °F 65% 29.69 in - North 24.2 mph 41.4 mph N/A   Unknown
6:03 PM 71.6 °F - 62.6 °F 73% 29.74 in - North 29.9 mph 41.4 mph N/A   Squalls
6:16 PM 66.2 °F - 64.4 °F 94% 29.79 in - NNW 38.0 mph 54.1 mph 0.10 in   Unknown
6:56 PM 66.0 °F - 62.1 °F 87% 29.82 in - NE 20.7 mph 28.8 mph 1.24 in   Unknown
7:56 PM 66.0 °F - 63.0 °F 90% 29.75 in - East 17.3 mph 24.2 mph 0.16 in   Unknown
8:56 PM 68.0 °F - 66.0 °F 93% 29.72 in - SSE 8.1 mph - 0.01 in   Unknown
9:56 PM 66.9 °F - 64.9 °F 93% 29.71 in - SSW 4.6 mph - N/A   Unknown
10:56 PM 64.9 °F - 63.0 °F 93% 29.71 in - Calm Calm - N/A   Unknown
11:56 PM 64.0 °F - 62.1 °F 93% 29.72 in - Calm Calm - N/A   Unknown